Zurück zum Katalog

STARLINK-4292

AktivKommunikationVLEO
NORAD 53175·PAYLOAD·🇺🇸 United States

Gestartet Jul 17, 2022 von Cape Canaveral Space Force Station

Loading…

Nächste Überflüge (nächste 24 Stunden)

TLE

AktuellSource: CelesTrak SupGP

Epoche: Sep 15, 2026, 02:18 UTC

1 53175C 22083AV  26258.09631944 -.00022860  00000+0 -65430-3 0  2583
2 53175  53.1606  34.6509 0001132  84.6918 136.5880 15.35398170    18

Verfolge STARLINK-4292 in Echtzeit mit AllMySat

Download on the App Store